Simultaneous Nadir Overpasses (SNOs) Predictions

Prediction of SNOs between LANDSAT-8 and NOAA-19 Satellite Orbit:

Table of predicted SNOs for the next 14.0 days since TLE Epoch: 12/18/2021
Index Date (LANDSAT-8) Time (LANDSAT-8) Lat,Lon (LANDSAT-8) SZA (LANDSAT-8 ) Date (NOAA-19) Time (NOAA-19) Lat,Lon (NOAA-19) SZA (NOAA-19 ) Distance(km) Time Diff (sec)
1 12/19/2021 18:27:10 -80.63, 116.75 74.46 12/19/2021 18:26:15 -80.64, 116.85 74.47 2.06 55
2 12/19/2021 19:16:36 80.63, -75.57 105.55 12/19/2021 19:17:09 80.62, -75.42 105.57 2.99 33
3 12/22/2021 00:50:20 -80.63, 20.96 74.48 12/22/2021 00:50:19 -80.64, 20.85 74.47 2.39 1
4 12/24/2021 06:24:02 80.65, 117.81 105.52 12/24/2021 06:23:18 80.64, 117.84 105.50 2.00 44
5 12/24/2021 07:13:30 -80.63, -74.87 74.53 12/24/2021 07:14:22 -80.63, -74.82 74.50 1.13 52
6 12/26/2021 12:47:12 80.65, 21.93 105.42 12/26/2021 12:47:22 80.64, 21.89 105.41 1.25 10
7 12/28/2021 18:20:56 -80.64, 118.41 74.73 12/28/2021 18:20:30 -80.65, 118.45 74.73 1.09 26
8 12/28/2021 19:10:22 80.64, -73.97 105.27 12/28/2021 19:11:26 80.64, -74.07 105.29 1.72 64
9 12/30/2021 23:54:38 80.65,-144.87 105.14 12/30/2021 23:53:31 80.66,-144.96 105.11 1.60 67



Historial Predications of SNOs between LANDSAT-8 and NOAA-19
